This is the latest recevied weather packets stored in our database for station/object N9CQS-15. If no packets are shown the sender has not sent any weather packets the latest 1 day(s).
| Time | Temp. | Humidity | Pressure | Rain* | Wind** | Luminosity | Snow |
|---|---|---|---|---|---|---|---|
| 1777999741 | 11.67° C | 74% | 1009.8 hPa | 0 mm | 1.34 m/s, 15° | - | - |
| 1777999142 | 11.67° C | 78% | 1009.8 hPa | 0 mm | 0.89 m/s, 3° | - | - |
| 1777998541 | 11.11° C | 79% | 1010.2 hPa | 0 mm | 0.89 m/s, 21° | - | - |
| 1777997942 | 10.56° C | 80% | 1010.1 hPa | 0 mm | 0.89 m/s, 30° | - | - |
| 1777997341 | 10° C | 81% | 1010.2 hPa | 0 mm | 1.34 m/s, 12° | - | - |
| 1777996742 | 9.44° C | 82% | 1010.3 hPa | 0 mm | 1.34 m/s, 27° | - | - |
| 1777996141 | 9.44° C | 83% | 1010.2 hPa | 0 mm | 1.79 m/s, 14° | - | - |
| 1777995542 | 9.44° C | 83% | 1009.9 hPa | 0.25 mm | 1.79 m/s, 4° | - | - |
| 1777994942 | 9.44° C | 81% | 1009.7 hPa | 0 mm | 2.24 m/s, 26° | - | - |
| 1777994342 | 9.44° C | 80% | 1009.8 hPa | 0.25 mm | 2.24 m/s, 34° | - | - |
| 1777993741 | 9.44° C | 81% | 1010.2 hPa | 0.25 mm | 1.34 m/s, 25° | - | - |
| 1777993142 | 9.44° C | 79% | 1010.5 hPa | 0 mm | 1.34 m/s, 19° | - | - |
| 1777992541 | 10° C | 77% | 1011.1 hPa | 0 mm | 1.34 m/s, 7° | - | - |
| 1777991941 | 10° C | 75% | 1010.7 hPa | 0 mm | 0.45 m/s, 306° | - | - |
| 1777991341 | 10.56° C | 74% | 1010.5 hPa | 0 mm | 1.34 m/s, 6° | - | - |
| 1777990741 | 10.56° C | 72% | 1009.9 hPa | 0 mm | 1.79 m/s, 329° | - | - |
| 1777990142 | 10.56° C | 71% | 1009.9 hPa | 0 mm | 2.24 m/s, 355° | - | - |
| 1777989542 | 10.56° C | 71% | 1010.2 hPa | 0 mm | 2.24 m/s, 319° | - | - |
| 1777988942 | 11.11° C | 72% | 1010.3 hPa | 0 mm | 2.68 m/s, 321° | - | - |
| 1777988341 | 11.11° C | 72% | 1010.1 hPa | 0 mm | 1.79 m/s, 302° | - | - |
| 1777987741 | 11.11° C | 72% | 1010.1 hPa | 0 mm | 2.24 m/s, 327° | - | - |
| 1777987142 | 11.11° C | 69% | 1010 hPa | 0 mm | 2.24 m/s, 317° | - | - |
| 1777986542 | 11.67° C | 70% | 1009.7 hPa | 0 mm | 1.79 m/s, 312° | - | - |
| 1777985941 | 11.67° C | 71% | 1009.4 hPa | 0 mm | 2.24 m/s, 297° | - | - |
| 1777985341 | 11.67° C | 72% | 1008.7 hPa | 0 mm | 1.34 m/s, 17° | - | - |
* Rain latest hour (hover to see other rain measurements)
** Current wind speed in m/s (hover to see current wind gust speed)